User: anonymous
Location: Daybis Observatory
(33.4273°N, 88.8061°W)
Time: 21:22:00
(UTC-05:00)
Language:

Coronas F rocket - Orbit

View from above orbital plane
View from above orbital plane
View from above satellite
View from above satellite

Ground track
Ground track

The orbit data is extracted from the following two-line orbital elements,

1 26874U 01032B   14232.12376054  .00009203  00000-0  14423-3 0  7576
2 26874 082.4719 276.2637 0015523 173.1163 187.0306 15.53375203731225
Epoch (UTC): 20 August 2014 02:58:12
Eccentricity: 0.0015523
inclination: 82.4719°
perigee height: 396 km
apogee height: 417 km
right ascension of ascending node: 276.2637°
argument of perigee: 173.1163°
revolutions per day: 15.53375203
mean anomaly at epoch: 187.0306°
orbit number at epoch: 73122

The dashed part of the orbit path shows where the satellite is in the earth's shadow,  

DLR